Simultaneous Nadir Overpasses (SNOs) Predictions

Prediction of SNOs between METOP-B and NPP Satellite Orbit:

Table of predicted SNOs for the next 14.0 days since TLE Epoch: 10/31/2025
Index Date (METOP-B) Time (METOP-B) Lat,Lon (METOP-B) SZA (METOP-B ) Date (NPP) Time (NPP) Lat,Lon (NPP) SZA (NPP ) Distance(km) Time Diff (sec)
1 11/14/2025 08:58:51 75.19, 35.47 93.52 11/14/2025 08:57:45 75.21, 32.28 93.64 90.67 66
2 11/14/2025 09:49:35 -75.08,-157.53 86.59 11/14/2025 09:48:27 -75.11,-160.11 86.46 73.72 68
3 11/14/2025 10:40:19 74.91, 9.31 93.27 11/14/2025 10:39:08 74.88, 7.86 93.30 42.00 71
4 11/14/2025 11:31:03 -74.79, 176.32 86.83 11/14/2025 11:29:50 -74.78, 175.46 86.81 25.09 73
5 11/14/2025 12:21:47 74.62, -16.82 93.02 11/14/2025 12:20:33 74.64, -16.85 93.06 2.66 74
6 11/14/2025 13:12:28 -74.65, 150.59 86.95 11/14/2025 13:11:17 -74.64, 150.47 86.94 3.55 71
7 11/14/2025 14:03:09 74.62, -42.16 93.04 11/14/2025 14:02:02 74.60, -42.10 93.03 3.10 67
8 11/14/2025 14:53:51 -74.60, 125.12 86.97 11/14/2025 14:52:46 -74.59, 125.22 86.97 3.22 65
9 11/14/2025 15:44:31 74.62, -67.50 93.06 11/14/2025 15:43:32 74.60, -67.49 93.05 2.31 59
10 11/14/2025 16:35:13 -74.60, 99.78 86.95 11/14/2025 16:34:16 -74.60, 99.84 86.95 1.88 57
11 11/14/2025 17:25:53 74.62, -92.84 93.08 11/14/2025 17:25:02 74.60, -92.87 93.07 2.17 51
12 11/14/2025 18:16:35 -74.60, 74.44 86.93 11/14/2025 18:15:46 -74.60, 74.45 86.93 0.59 49



Historial Predications of SNOs between METOP-B and NPP
